map of KHBI home
Great Circle Mapper logo
KHBI - Airport
Location
City:  Asheboro, North Carolina, United States
Name:Asheboro Regional
ICAO:KHBI
FAA:HBI

Details
Type:Airport (Airfield)
Use:Public/Civil
Latitude:3539'16"N (35.654528)
Longitude:7953'41"W (-79.894749)
Datum:WGS 1984
Elevation:670 ft (204 m)
Variation:8.32W (WMM2015 magnetic declination)
-0.05 annual change
Runways:1
Longest:5501 × 100 ft (1677 × 30.5 m), paved

Time
Time Zone:UTC-5 (DST-4)
Local Time:

Weather
METAR:KHBI 272135Z AUTO 34009G15KT 300V360 10SM CLR 19/00 A2984 RMK AO2 T01851003

Related Locations
Nearby:
Farthest:MGV: 11584 mi / 18642 km
Margaret River, WA, AU

Find:

   beyond  
but within

Other Information
Maps:
NOTAMs:
Links:
Sources:

  
flag of United States
flag of North Carolina
  

Sectional Chart

Flight Planning
at skyvector.com

Satellite Image

Google Maps Satellite View

 

Copyright © 2004-2015 Karl L. Swartz. All rights reserved.
The Great Circle Mapper name and logo are trademarks of the Great Circle Mapper.
All other trademarks mentioned herein belong to their respective owners.
Please see credits for attibutions and further copyright information.

  Follow gcmap on Facebook Follow gcmap on Twitter Follow gcmap on Google+

hCard Microformat

Geo Microformat